sat.trackr.live / text

‹ back to catalog

STARLINK-35478

NORAD 65917 · 2025-225H

PAYLOAD ACTIVE UNKNOWN

§ Identity

Operator
Country
US
Launch date
2025-10-08
Launch site
AFWTR
Launch vehicle
Mass (kg)
RCS (m²)

Purposes: comms

External: N2YO · Heavens-Above · Gunter

§ Orbital elements

Epoch: 2026-05-24T11:59:47.742432Z

Period
94.10 min
Inclination
53.1575°
Eccentricity
0.0000976
Mean motion
15.30205655 rev/d
Perigee alt
474.5 km
Apogee alt
475.9 km
Semi-major
6,853.3 km
B*
4.0121e-4
RAAN
173.6449°
Arg perigee
83.4712°
Mean anomaly
276.6400°
Rev number
3,601

§ Raw data

STARLINK-354781 65917U 25225H   26144.49985813  .00011544  00000+0  40121-3 0  99932 65917  53.1575 173.6449 0000976  83.4712 276.6400 15.30205655 36014

JSON: /api/v1/satellites/65917 · /tle

For live sub-satellite position, see the globe view (requires WebGL).

§ Visibility from observer

Set your observer location to see the next 7 days of passes ≥ 10°. The values pass through the URL so the page stays shareable.

No JS? Fill the form by hand. The geolocation button needs JavaScript.